Dewpoint
-4 -4 -4 -3 -1 -1 -2 -2 -3 -3 -3 -6 -4 -1 -1 -0 0 1 1 2 1 1 0 -1 -1 -2 -2 -1 1 -1 -1 -2 -0 1 1 1 1 -2 0 1 1 2 2 2 1 2 3 -3 -2 -0 -3 -3 -4 -4
-5 -4 -3 -2 -0 -1 -1 -2 -2 -4 -5 -6 -3 -2 -0 -0 -0 -0 0 3 3 1 1 1 -0 -0 -0 -2 -2 -2 -4 -3 -2 1 0 1 2 1 1 3 -1 1 1 1 1 1 -2 -2 -1 -3 -4 -4 -5 -5
-5 -4 -3 -2 -1 -1 -2 -2 -2 -5 -8 -4 -2 -1 -0 -1 -0 -1 1 2 1 1 1 1 -1 -2 -3 -4 -6 -4 -4 -4 -1 -1 1 1 1 1 2 1 1 -1 -1 0 -0 -2 -3 -3 -3 -3 -4 -4 -5 -6
-5 -4 -2 -1 -1 -1 -2 -2 -2 -6 -6 -5 -3 -1 -1 -2 0 1 2 1 0 -1 1 -0 -3 -3 -2 -5 -6 -4 -4 -3 -2 -3 -1 0 -1 -1 1 -0 0 -1 -1 -1 -1 -2 -3 -4 -4 -4 -5 -6 -6 -6
-5 -3 -3 -1 -1 -2 -2 -2 -3 -6 -6 -4 -1 -1 -2 -3 1 1 0 -1 -0 -2 0 -1 -3 -3 -5 -4 -4 -4 -4 -5 -3 -1 0 -1 -2 -2 -1 1 0 -2 -1 -2 -2 -3 -4 -3 -4 -5 -5 -6 -6 -7
-4 -3 -2 -1 -1 -2 -3 -5 -9 -8 -4 -2 -1 -1 -4 -5 -0 -1 -1 -1 -2 -3 -4 -0 -2 -3 -3 -3 -4 -4 -3 -4 -4 -1 -1 -2 -2 -1 -1 0 -0 -1 -2 -3 -0 -4 -4 -4 -4 -5 -5 -6 -6 -7
-3 -3 -1 -1 -1 -2 -2 -6 -9 -5 -2 -3 -2 -4 -5 -2 -2 -3 -0 -1 -3 -5 -4 -2 -1 -2 -2 -3 -3 -3 -4 -4 -4 -4 -2 -4 -5 -3 -1 0 -2 -1 -1 -2 -3 -3 -3 -4 -4 -5 -6 -6 -7 -8
-2 -1 -1 -1 -1 -2 -3 -6 -7 -5 -4 -3 -4 -5 -7 -8 -7 -2 -2 -2 -2 -3 -3 -1 -0 -2 -2 -3 -3 -3 -4 -4 -3 -4 -5 -2 -6 -3 -1 -2 -3 -2 -2 -2 -3 -3 -3 -4 -4 -5 -6 -7 -8 -8
-2 -1 -2 -2 -2 -2 -2 -3 -5 -5 -5 -4 -5 -6 -5 -8 -5 -4 -4 -3 -3 -2 -1 -2 -1 -1 -1 -3 -3 -3 -3 -2 -3 -1 -2 -2 -1 -1 -2 -3 -3 -3 -3 -3 -3 -3 -4 -4 -4 -5 -7 -7 -8 -8
-1 -1 -2 -2 -2 -3 -3 -3 -3 -2 -3 -4 -5 -10 -11 -7 -8 -7 -9 -12 -7 -3 -2 -1 -3 -1 -2 -2 -2 -2 -2 -2 -2 -2 -3 -1 -1 -2 -3 -4 -4 -3 -3 -4 -4 -4 -4 -5 -5 -6 -7 -7 -8 -9
-2 -2 -2 -2 -2 -3 -3 -3 -3 -3 -4 -5 -12 -6 -6 -6 -7 -9 -6 -4 -5 -2 -1 -2 -2 -1 -2 -2 -2 -2 -3 -2 -2 -1 -2 -1 -1 -1 -4 -5 -4 -4 -3 -4 -5 -5 -5 -6 -6 -6 -7 -8 -8 -9
-1 -2 -2 -2 -4 -4 -4 -3 -3 -3 -6 -8 -7 -6 -7 -5 -3 -3 -2 -4 -3 -2 -2 -1 -1 -0 -1 -3 -2 -3 -3 -3 1 -2 -3 -1 -1 -3 -5 -5 -4 -4 -4 -4 -4 -4 -5 -5 -6 -7 -7 -9 -9 -10
-2 -2 -3 -3 -3 -4 -3 -4 -5 -8 -8 -9 -11 -9 -5 -5 -5 -4 -4 -1 -2 -2 -1 -2 -2 -2 -2 -3 -1 -3 -3 -2 -3 -3 -2 -1 -1 -3 -4 -4 -4 -4 -4 -4 -4 -5 -5 -5 -6 -7 -8 -9 -10 -11
-2 -2 -3 -3 -3 -3 -4 -8 -5 -5 -8 -8 -6 -6 -5 -5 -3 -1 -0 -1 -2 -2 -1 -2 -1 -1 -2 -2 -2 -5 -3 -2 -3 -3 -2 -2 -2 -3 -3 -3 -4 -4 -4 -4 -4 -5 -5 -6 -7 -7 -8 -10 -11 -13
-3 -3 -3 -3 -3 -4 -5 -8 -9 -12 -8 -5 -5 -3 -4 -3 -3 -2 -2 -2 -2 -1 -3 -1 -1 -1 -2 -3 -2 -4 -3 -3 -2 -2 1 -2 -2 -3 -3 -3 -4 -4 -4 -4 -4 -5 -5 -6 -7 -8 -9 -10 -12 -14
-3 -4 -5 -5 -5 -7 -8 -9 -11 -12 -6 -5 -3 -4 -4 -4 -3 -3 -3 -3 -1 -0 -2 -3 -2 -2 -2 -2 -2 -3 -2 -2 -2 -0 -1 -3 -3 -3 -3 -3 -3 -4 -4 -4 -4 -5 -6 -6 -8 -8 -9 -10 -13 -15
-5 -6 -7 -5 -4 -8 -10 -11 -10 -6 -5 -4 -3 -3 -2 -3 -2 -2 -3 -4 -2 -2 -1 -2 -2 -2 -2 -2 -1 -2 -1 -0 -0 -1 -2 -3 -4 -4 -4 -4 -4 -4 -4 -4 -5 -5 -6 -7 -8 -9 -10 -11 -14 -16
-7 -7 -8 -6 -5 -6 -7 -8 -7 -5 -3 -3 -4 -3 -3 -2 -3 -3 -2 -3 -2 -1 -1 -1 -1 -2 -3 -2 -2 -2 -0 -1 -2 -2 -3 -3 -4 -4 -4 -5 -5 -5 -5 -6 -6 -6 -8 -9 -10 -10 -11 -13 -15 -17
-7 -7 -7 -6 -6 -6 -7 -7 -7 -4 -4 -5 -5 -5 -4 -4 -4 -4 -4 -4 -3 -2 -2 -3 -2 -1 -1 -2 -2 -2 -1 -1 -2 -3 -4 -3 -4 -5 -5 -5 -6 -6 -6 -6 -7 -8 -10 -11 -11 -11 -12 -13 -15 -17
-8 -7 -6 -6 -7 -8 -8 -8 -8 -6 -5 -5 -5 -4 -4 -6 -5 -4 -5 -4 -4 -3 -3 -2 -2 -3 -3 -4 -3 -3 -2 -2 -2 -2 -3 -4 -4 -5 -6 -6 -6 -7 -7 -7 -8 -10 -10 -11 -12 -12 -13 -13 -15 -16
-6 -7 -7 -9 -9 -7 -7 -7 -8 -8 -7 -6 -7 -6 -5 -4 -4 -4 -5 -6 -5 -4 -3 -3 -4 -4 -4 -4 -4 -4 -3 -3 -2 -2 -2 -2 -3 -6 -5 -6 -7 -7 -7 -8 -9 -10 -10 -11 -11 -12 -12 -12 -13 -13
-7 -8 -10 -13 -8 -7 -7 -7 -8 -8 -7 -7 -7 -6 -5 -4 -5 -5 -6 -6 -4 -4 -4 -5 -5 -6 -6 -6 -7 -6 -5 -5 -5 -5 -5 -5 -4 -5 -6 -6 -7 -7 -8 -8 -8 -9 -9 -10 -10 -10 -11 -11 -10 -11
-7 -9 -10 -8 -8 -7 -6 -6 -8 -8 -6 -7 -8 -7 -6 -6 -5 -6 -6 -5 -5 -6 -6 -7 -7 -6 -6 -6 -5 -5 -5 -5 -4 -4 -4 -4 -4 -4 -5 -6 -6 -7 -7 -7 -8 -8 -8 -8 -9 -9 -9 -10 -10 -10
-6 -9 -9 -6 -7 -7 -6 -6 -8 -7 -8 -7 -6 -7 -7 -5 -6 -7 -7 -5 -6 -7 -7 -9 -8 -8 -7 -7 -7 -7 -7 -7 -6 -5 -5 -5 -5 -5 -5 -5 -6 -6 -7 -7 -7 -8 -8 -9 -9 -9 -10 -10 -10 -10
-10 -11 -7 -6 -6 -6 -8 -8 -7 -6 -8 -7 -8 -9 -6 -7 -8 -8 -7 -6 -8 -8 -9 -9 -9 -9 -8 -7 -8 -7 -8 -8 -8 -7 -6 -6 -6 -6 -6 -6 -7 -7 -7 -8 -8 -8 -7 -8 -8 -9 -9 -10 -10 -11
-9 -9 -7 -7 -6 -7 -7 -8 -8 -9 -8 -9 -8 -5 -6 -7 -8 -7 -7 -9 -10 -10 -11 -11 -11 -10 -10 -10 -10 -10 -10 -10 -10 -8 -8 -7 -7 -7 -7 -7 -7 -7 -7 -8 -8 -9 -8 -8 -8 -9 -9 -10 -10 -11
-9 -8 -9 -8 -7 -9 -7 -7 -8 -7 -9 -9 -8 -7 -7 -8 -8 -9 -10 -11 -11 -11 -12 -11 -11 -11 -11 -11 -11 -11 -10 -10 -9 -9 -9 -9 -9 -8 -8 -8 -8 -8 -8 -8 -8 -9 -9 -9 -9 -9 -10 -10 -10 -11
-8 -7 -9 -7 -7 -6 -7 -7 -8 -8 -7 -5 -5 -6 -6 -8 -10 -12 -12 -12 -12 -12 -11 -11 -12 -11 -11 -11 -11 -11 -11 -10 -9 -9 -9 -9 -10 -10 -11 -11 -12 -12 -12 -11 -11 -12 -10 -10 -10 -10 -10 -10 -11 -11
-7 -7 -7 -6 -6 -6 -6 -6 -5 -6 -6 -5 -6 -7 -11 -13 -14 -14 -14 -13 -13 -13 -12 -12 -12 -11 -11 -10 -11 -12 -11 -10 -9 -9 -9 -10 -10 -11 -11 -11 -11 -11 -11 -13 -12 -13 -13 -11 -11 -11 -10 -10 -11 -11
-6 -7 -6 -6 -9 -8 -6 -6 -7 -7 -8 -8 -9 -11 -14 -15 -15 -15 -15 -14 -14 -14 -14 -14 -13 -12 -12 -12 -12 -12 -12 -11 -11 -11 -11 -12 -12 -12 -11 -11 -11 -11 -11 -11 -11 -11 -11 -12 -12 -12 -11 -11 -11 -11
-7 -7 -7 -7 -7 -6 -7 -8 -8 -8 -8 -9 -9 -10 -14 -16 -16 -16 -16 -16 -16 -15 -15 -15 -15 -14 -14 -14 -14 -13 -13 -13 -13 -13 -12 -12 -12 -12 -12 -13 -13 -12 -12 -12 -11 -11 -11 -11 -12 -12 -12 -12 -12 -12
-7 -6 -5 -5 -7 -8 -8 -8 -8 -8 -8 -10 -11 -12 -14 -14 -16 -17 -17 -17 -17 -17 -17 -16 -16 -16 -16 -16 -15 -15 -15 -14 -14 -13 -13 -13 -14 -15 -16 -16 -15 -14 -13 -13 -13 -13 -12 -12 -12 -12 -12 -12 -13 -13
-7 -7 -7 -7 -7 -7 -8 -8 -7 -7 -9 -11 -12 -12 -14 -15 -17 -18 -18 -18 -18 -18 -17 -17 -16 -17 -17 -16 -16 -16 -16 -15 -15 -15 -15 -15 -15 -16 -16 -15 -15 -15 -15 -14 -14 -14 -14 -14 -14 -14 -14 -14 -15 -15
Wind_Speed
20 17 17 23 21 21 16 17 16 12 8 6 5 9 8 11 8 6 2 13 11 7 16 21 20 21 9 18 5 13 6 1 3 3 5 4 3 6 4 6 7 4 4 3 3 2 4 14 11 5 8 16 15 11
17 18 15 22 20 21 18 18 16 12 11 9 8 15 8 13 9 9 5 12 13 12 20 19 16 14 15 27 21 19 10 8 9 3 2 1 1 3 5 3 5 3 4 4 2 3 9 16 16 24 20 19 15 13
18 17 15 25 24 23 21 17 17 14 14 10 7 9 12 6 4 8 9 24 34 31 24 22 15 15 14 24 19 11 9 9 5 3 1 1 2 3 3 2 4 3 7 5 5 7 14 17 17 19 15 15 13 11
20 17 18 20 25 23 21 18 19 15 16 11 9 9 8 5 5 8 12 10 7 10 5 11 15 15 14 20 19 10 19 10 9 4 2 2 2 4 2 4 4 4 5 6 6 15 20 17 16 16 17 16 14 13
20 19 17 23 26 21 19 18 19 18 14 11 12 13 17 6 5 10 10 14 8 11 6 19 23 16 13 15 15 12 12 9 5 3 3 1 2 4 3 4 2 2 6 4 4 21 10 20 16 14 15 14 12 11
19 18 18 27 26 23 22 17 17 17 14 11 15 20 7 7 7 8 6 17 28 30 10 4 11 16 16 17 16 13 11 8 4 4 2 3 3 3 3 3 5 16 14 13 8 23 19 22 19 16 14 14 13 13
19 19 24 30 27 26 22 18 18 19 16 12 17 9 8 8 6 3 6 12 17 14 7 4 3 5 9 14 14 11 10 10 8 4 2 3 3 4 2 3 12 19 20 25 26 27 24 23 23 18 16 17 15 13
21 23 32 29 26 26 24 20 18 19 17 15 14 10 11 9 10 15 13 11 12 10 7 3 2 3 6 6 4 5 4 6 7 3 3 3 2 3 3 17 22 22 23 23 18 8 22 23 20 17 16 15 11 12
15 31 29 27 27 23 21 23 22 22 18 13 14 12 13 11 8 11 12 13 12 8 5 4 4 3 6 6 5 5 5 3 5 2 2 1 0 1 12 22 23 27 17 21 13 18 21 22 22 20 19 16 16 13
36 32 31 28 24 21 24 23 22 23 19 13 13 4 4 7 17 13 4 3 6 5 6 3 5 2 10 5 3 3 3 2 1 2 2 2 1 2 19 24 26 22 20 23 24 21 22 23 23 21 20 17 15 12
34 32 28 28 23 23 21 23 25 25 17 13 3 4 17 14 5 4 3 3 2 3 4 4 15 7 6 4 2 3 2 0 2 3 3 1 2 5 21 25 24 20 19 22 14 18 18 20 21 20 18 16 15 16
35 29 28 30 28 26 27 27 22 16 12 6 10 15 9 3 4 4 1 3 3 3 2 7 11 7 6 4 4 2 2 2 1 1 3 2 3 18 26 25 24 21 20 20 13 15 15 15 18 20 20 19 19 16
31 31 32 30 29 28 30 22 17 15 22 11 6 4 2 4 4 4 3 1 2 2 3 8 3 5 4 4 4 3 3 3 9 2 3 3 12 19 27 26 24 22 22 20 17 18 19 19 19 20 19 18 16 15
32 29 28 28 26 28 30 21 18 14 7 5 4 4 2 3 3 3 3 2 4 5 18 16 5 3 3 3 2 4 3 2 1 1 4 3 18 23 26 24 25 22 22 20 17 19 20 21 20 18 15 14 14 14
25 24 27 27 26 27 27 17 13 12 6 5 5 3 3 4 6 6 5 5 7 8 14 8 5 4 1 3 1 3 3 2 3 3 0 14 21 23 23 22 23 22 21 20 20 20 19 19 18 17 17 16 15 15
33 32 32 27 27 26 15 14 14 11 6 5 6 4 6 8 3 6 6 5 5 7 7 3 2 3 1 3 2 4 4 3 1 2 8 15 19 19 20 21 21 21 21 21 21 19 19 18 17 18 18 18 17 16
33 37 34 27 23 21 16 14 8 6 4 4 4 10 8 11 6 6 5 4 6 4 2 2 3 3 3 2 1 1 2 1 13 12 8 10 15 16 17 16 17 19 19 21 20 20 19 19 19 20 21 19 18 18
41 37 28 24 21 19 15 7 5 6 7 8 5 10 13 10 8 8 10 6 3 3 3 2 3 1 2 2 2 2 8 11 8 4 5 7 10 12 12 13 15 17 18 19 18 18 19 20 20 20 19 18 19 20
35 29 19 12 12 7 4 6 6 5 6 9 10 11 11 11 10 8 6 8 9 7 4 5 2 3 3 5 7 13 14 5 4 1 2 5 6 9 11 12 14 17 17 17 17 16 16 16 16 17 19 20 21 20
27 25 15 8 7 4 5 5 5 7 3 4 5 6 5 5 8 9 9 7 5 3 3 2 3 4 5 6 6 5 5 5 3 5 4 2 3 6 7 8 10 14 16 16 16 16 16 16 18 19 19 20 20 20
28 22 13 12 13 8 5 4 5 6 7 4 8 5 4 2 4 4 4 4 3 4 4 6 8 6 5 5 5 2 1 2 1 1 3 4 5 4 6 7 8 11 14 16 17 18 18 17 15 17 20 20 18 15
19 15 10 7 6 4 5 7 5 5 4 5 4 4 4 2 1 3 3 3 4 4 3 3 1 4 2 5 6 3 3 3 1 2 5 5 6 6 8 7 9 11 13 14 14 15 15 15 16 15 15 20 19 18
18 12 7 6 4 4 2 4 3 4 3 4 3 3 1 2 2 1 1 3 4 2 2 1 4 5 7 7 7 5 6 4 1 2 5 4 4 5 7 8 8 10 12 13 15 14 12 12 12 15 14 16 20 21
9 4 3 3 4 1 2 3 3 3 3 3 2 0 2 3 2 2 1 4 8 5 1 4 2 3 3 2 4 5 6 7 6 4 4 7 8 8 8 9 9 10 12 13 14 14 13 14 13 14 16 19 21 20
2 3 2 2 2 2 2 1 3 2 1 1 2 2 2 4 1 3 2 4 9 4 4 3 2 4 4 2 1 4 4 5 5 5 4 4 6 5 4 6 8 9 10 11 12 14 15 17 15 15 17 18 20 19
4 1 2 2 1 2 3 3 3 4 2 1 2 4 3 2 1 0 3 6 4 3 5 5 4 2 3 6 7 9 11 11 9 2 2 4 5 6 6 7 7 8 9 10 11 12 13 16 17 15 17 17 16 17
2 1 1 0 1 1 2 1 3 3 2 3 2 4 3 2 1 3 2 2 1 3 2 4 4 3 3 7 10 5 5 9 4 4 5 5 5 5 6 6 6 7 8 9 9 11 11 12 15 13 14 15 14 14
3 2 1 0 1 3 1 1 3 3 1 1 8 3 2 1 2 1 1 1 2 4 3 2 4 2 3 3 7 4 3 3 2 4 4 2 3 2 2 3 5 7 8 9 9 9 8 11 12 11 12 12 11 11
1 1 0 1 1 1 1 0 2 2 3 4 2 2 4 4 5 3 1 2 2 2 1 2 1 3 6 7 1 5 5 1 6 12 12 9 4 6 7 6 5 6 5 4 4 4 4 6 9 10 8 8 7 8
2 2 2 3 2 1 2 2 2 1 2 4 5 7 6 6 4 5 4 3 1 4 3 3 1 3 4 5 5 5 5 4 3 3 4 4 3 6 7 6 5 6 7 4 3 4 4 4 4 6 9 8 8 7
2 2 2 3 0 3 3 3 4 5 3 3 4 6 8 8 6 4 4 4 2 1 3 1 2 2 2 2 0 1 3 4 4 2 1 3 6 7 8 8 8 8 7 6 6 6 5 5 3 2 1 4 6 6
3 3 3 2 3 2 3 3 4 5 7 5 4 4 7 5 4 2 4 1 2 3 1 1 0 2 3 3 3 4 4 4 4 4 4 5 6 7 8 7 7 5 4 5 5 4 4 5 4 6 10 9 6 5
2 3 3 3 4 5 4 3 5 1 5 4 4 4 3 4 4 2 4 4 4 6 5 2 2 4 2 2 1 2 1 4 6 6 6 6 7 6 5 5 5 4 3 2 2 0 1 3 3 3 3 2 1 1
Wind_Direction
202 209 214 216 199 185 190 189 196 200 189 189 203 223 164 122 108 55 190 184 165 127 146 161 149 170 151 149 146 164 96 351 64 131 188 230 189 202 118 150 156 147 141 181 196 142 181 126 130 167 144 119 125 116
209 206 212 205 196 182 186 183 187 186 196 183 194 205 184 121 57 351 305 125 165 109 116 146 126 164 164 175 145 169 158 154 164 159 223 197 0 91 124 153 139 154 187 144 99 138 84 75 107 130 135 130 130 130
206 205 207 203 185 179 176 180 185 185 176 176 173 189 204 67 63 353 106 122 115 95 82 99 91 109 160 172 187 149 153 171 152 152 134 180 87 106 142 166 98 68 105 109 103 119 104 104 110 127 132 136 137 139
200 200 204 184 173 168 176 185 184 173 169 170 182 175 164 130 59 56 117 142 126 108 93 75 86 88 106 150 158 149 156 131 123 83 101 131 112 41 52 124 110 171 97 121 82 129 119 127 128 137 131 135 133 134
193 196 212 172 174 167 170 170 175 174 174 179 181 150 143 114 99 85 108 129 83 103 112 104 84 83 98 146 143 135 164 158 116 65 47 62 48 51 52 78 28 114 156 140 198 159 138 150 156 154 146 139 139 140
189 198 203 173 167 165 168 164 161 162 164 169 156 144 153 141 146 85 100 96 110 117 108 66 75 76 86 96 101 109 125 128 110 86 78 73 53 90 93 92 85 93 118 136 135 161 149 149 155 156 151 153 157 149
187 198 171 171 170 167 164 160 156 155 148 147 122 122 146 126 118 98 120 112 110 108 90 82 57 70 86 90 91 80 88 85 89 97 89 104 62 29 77 117 120 107 116 125 137 134 129 151 154 155 160 156 162 160
190 167 159 167 175 160 163 154 157 153 141 123 120 122 114 110 112 116 103 111 123 101 86 93 90 69 94 95 47 79 64 54 40 35 70 95 62 38 72 127 127 130 133 132 139 149 159 161 155 159 171 172 160 154
176 156 153 154 153 163 161 164 152 149 142 132 134 134 112 111 109 124 104 89 84 68 104 112 135 164 144 111 101 51 49 42 10 32 45 90 145 201 157 145 143 148 146 149 146 150 159 163 161 167 165 166 166 164
152 154 155 153 155 155 152 143 148 151 149 142 140 101 88 112 116 115 84 38 38 37 54 75 105 130 138 123 87 82 30 164 78 249 66 70 248 152 157 162 163 160 158 159 153 152 161 164 170 172 176 175 187 179
149 149 149 151 153 151 156 165 157 138 151 149 122 86 121 128 98 75 56 66 105 36 76 93 125 117 121 104 155 106 183 228 122 243 124 223 270 206 157 157 169 168 170 179 182 172 178 176 173 171 171 177 185 182
149 151 149 147 142 138 134 126 127 125 137 146 125 122 116 82 69 78 37 345 48 147 82 121 110 88 87 102 99 134 116 38 182 110 82 249 249 164 154 156 164 166 164 173 180 176 181 177 175 177 182 185 196 204
143 142 145 145 143 139 139 134 137 136 124 117 97 70 33 27 56 122 166 74 76 102 131 138 91 111 101 89 65 72 89 223 128 73 211 236 158 156 155 156 154 160 164 168 167 177 179 180 184 192 195 201 206 203
139 143 145 146 147 143 145 136 128 130 98 71 65 44 82 3 51 27 22 73 76 145 133 124 88 101 100 63 145 96 244 106 56 108 233 197 162 158 163 167 168 168 176 181 184 188 192 194 195 205 210 209 208 206
138 144 145 139 136 146 134 131 120 111 76 61 38 56 69 97 70 51 51 89 94 127 138 106 79 97 88 95 117 106 32 191 210 219 132 157 163 167 172 178 178 181 190 194 199 202 204 206 208 208 209 212 214 213
129 126 127 124 132 115 116 99 82 79 61 58 47 58 114 90 67 72 64 78 92 107 130 86 106 81 207 136 112 202 175 205 266 95 133 157 168 179 183 188 190 193 198 204 210 214 214 212 215 217 216 219 221 219
128 128 122 107 104 108 104 83 63 56 65 57 44 38 80 81 78 69 88 84 98 73 41 17 87 195 120 101 195 177 85 120 110 105 135 171 182 190 198 200 201 207 210 213 216 220 223 221 219 221 224 223 222 220
130 134 115 97 96 94 83 70 86 67 60 59 71 43 67 76 83 66 61 140 95 47 31 50 317 26 152 138 31 22 92 95 115 118 125 143 184 201 210 210 208 212 218 225 227 227 226 225 225 227 228 227 225 225
140 145 132 79 59 55 60 52 59 81 77 79 90 88 76 70 70 83 85 83 88 82 74 351 16 23 69 41 36 50 47 93 124 118 138 146 168 188 204 210 217 221 226 230 230 232 235 237 237 233 233 232 233 236
139 140 129 108 85 69 65 48 60 90 88 109 112 88 68 82 100 87 78 69 78 56 67 50 42 36 64 56 57 59 60 80 39 29 14 27 186 192 209 219 220 221 225 227 231 235 236 234 233 233 234 240 238 242
141 135 127 104 79 75 84 65 63 98 123 115 144 110 75 81 49 43 77 50 58 34 76 78 98 78 45 3 355 17 44 169 161 312 356 301 320 259 230 234 223 221 229 233 238 239 242 248 249 241 237 243 247 247
137 133 121 88 61 68 74 54 103 105 84 134 128 110 106 160 74 29 10 17 61 57 79 122 283 321 234 284 331 339 335 318 272 264 286 283 277 273 259 258 229 231 239 248 254 256 258 256 259 256 245 236 245 250
137 113 64 41 68 57 40 66 90 123 107 141 141 92 133 71 74 100 41 59 94 126 160 17 23 23 6 16 16 18 8 7 129 22 265 276 290 289 255 250 255 249 248 250 253 259 264 267 261 253 252 239 240 247
130 54 39 48 59 78 46 19 86 78 99 150 120 317 95 98 67 13 304 79 123 162 18 13 55 93 78 360 336 323 321 315 308 281 290 286 260 246 261 269 265 268 260 258 261 264 265 266 267 261 250 246 246 251
109 34 81 51 121 128 87 58 337 92 134 224 63 356 121 143 145 214 181 99 122 115 355 8 72 66 32 82 34 21 350 331 328 283 344 252 259 261 217 247 271 275 273 272 269 258 257 255 259 259 253 252 250 255
74 31 54 124 196 148 172 126 171 195 144 102 190 104 147 150 226 351 59 74 75 28 14 25 35 34 8 350 322 308 307 312 305 276 237 237 266 253 255 260 257 259 268 277 280 275 269 263 262 262 258 257 258 261
92 222 142 151 347 205 85 100 133 117 149 186 166 157 178 210 173 90 138 150 266 338 62 54 1 320 344 4 337 338 354 353 342 263 261 291 296 284 271 263 261 264 272 275 273 267 264 264 259 264 263 263 262 264
13 39 129 262 30 23 86 337 175 205 246 49 145 171 170 70 91 105 186 339 84 85 61 272 296 358 33 14 2 337 320 327 25 104 131 132 59 26 314 284 280 283 278 280 285 288 257 241 247 259 262 260 268 268
166 92 14 125 327 215 257 16 74 70 22 359 26 78 102 99 130 142 136 160 175 189 247 283 38 147 96 113 347 337 335 5 87 105 112 106 58 23 23 15 15 5 351 339 341 319 286 244 245 251 264 255 257 263
120 148 282 167 156 273 93 79 138 160 59 100 114 116 105 111 137 167 149 109 110 117 77 349 17 169 157 106 62 31 38 45 77 124 112 71 348 330 325 325 325 313 320 326 304 328 335 310 281 248 245 254 264 267
153 165 250 251 148 114 195 195 139 146 150 119 115 142 139 140 124 98 133 103 23 184 190 123 31 83 109 109 90 304 25 40 50 56 306 302 314 322 324 324 318 307 298 287 269 267 284 273 310 309 266 225 239 235
200 242 320 298 112 168 164 181 204 197 189 142 125 129 129 120 103 28 31 203 294 321 350 192 182 88 81 98 106 78 26 22 17 11 1 355 346 338 336 333 332 334 315 302 300 289 278 275 226 196 179 178 193 219
241 270 269 286 188 186 173 209 213 123 79 79 79 101 96 99 94 113 0 25 22 349 347 336 147 128 60 15 132 142 54 340 358 359 354 355 356 354 351 347 343 340 342 358 27 66 176 196 198 209 228 241 237 248
Height
1345 1350 1354 1359 1363 1368 1374 1378 1381 1383 1386 1388 1390 1390 1392 1391 1391 1391 1392 1393 1395 1397 1402 1408 1412 1416 1418 1423 1429 1434 1440 1444 1448 1456 1459 1453 1452 1452 1455 1460 1467 1474 1482 1488 1486 1486 1495 1488 1493 1499 1505 1506 1509 1512
1344 1348 1352 1357 1360 1367 1373 1377 1380 1383 1386 1388 1390 1391 1391 1391 1392 1393 1389 1391 1393 1399 1406 1410 1413 1417 1420 1421 1426 1434 1436 1439 1443 1451 1449 1446 1450 1450 1455 1468 1461 1477 1469 1482 1488 1494 1493 1491 1493 1498 1502 1505 1509 1512
1342 1346 1350 1354 1358 1366 1372 1376 1380 1384 1387 1389 1390 1392 1392 1392 1394 1393 1391 1395 1397 1402 1410 1413 1418 1419 1419 1422 1426 1430 1435 1438 1440 1442 1443 1445 1445 1449 1458 1460 1464 1466 1467 1480 1482 1494 1494 1498 1500 1502 1504 1507 1510 1513
1340 1344 1348 1352 1357 1365 1371 1376 1380 1384 1387 1389 1392 1392 1394 1396 1395 1393 1394 1397 1400 1403 1411 1420 1419 1418 1422 1423 1427 1429 1433 1437 1439 1441 1442 1446 1449 1445 1452 1454 1462 1464 1469 1479 1486 1492 1496 1501 1502 1504 1506 1508 1510 1513
1339 1343 1347 1352 1360 1365 1370 1376 1380 1384 1387 1389 1391 1393 1396 1396 1396 1396 1398 1399 1401 1404 1414 1423 1426 1428 1427 1427 1429 1432 1435 1438 1440 1442 1444 1450 1446 1448 1451 1455 1466 1462 1471 1479 1486 1484 1487 1496 1502 1505 1507 1509 1512 1513
1338 1342 1345 1353 1360 1366 1372 1377 1380 1384 1388 1389 1391 1393 1397 1398 1400 1400 1400 1404 1404 1409 1412 1426 1432 1432 1431 1430 1432 1435 1437 1440 1442 1443 1447 1449 1450 1451 1461 1468 1469 1466 1467 1469 1475 1481 1486 1494 1501 1505 1508 1510 1512 1513
1337 1342 1346 1355 1362 1368 1374 1378 1382 1386 1389 1391 1393 1396 1398 1400 1402 1403 1405 1408 1408 1410 1414 1426 1434 1435 1436 1436 1438 1439 1439 1441 1443 1446 1448 1450 1451 1452 1457 1467 1469 1469 1470 1472 1476 1481 1491 1495 1499 1504 1507 1509 1510 1512
1337 1341 1349 1357 1363 1369 1375 1380 1384 1388 1391 1395 1397 1399 1401 1402 1404 1407 1408 1409 1410 1412 1417 1430 1438 1439 1439 1441 1443 1443 1444 1445 1447 1449 1449 1452 1454 1454 1463 1464 1467 1470 1473 1477 1481 1484 1487 1494 1499 1503 1506 1507 1509 1512
1337 1345 1353 1360 1366 1372 1377 1382 1387 1391 1395 1399 1401 1402 1403 1405 1407 1409 1410 1412 1412 1417 1419 1427 1435 1444 1441 1443 1446 1447 1448 1453 1452 1452 1452 1454 1457 1461 1459 1462 1466 1469 1472 1477 1482 1485 1489 1492 1497 1501 1504 1506 1508 1510
1340 1349 1357 1363 1370 1375 1380 1385 1389 1393 1398 1401 1403 1404 1406 1408 1411 1413 1416 1415 1416 1419 1420 1426 1430 1437 1440 1442 1448 1451 1451 1455 1460 1456 1454 1458 1459 1455 1456 1459 1463 1468 1472 1476 1480 1485 1488 1492 1495 1499 1502 1505 1506 1508
1347 1354 1360 1367 1373 1378 1383 1387 1392 1396 1400 1403 1404 1406 1410 1412 1414 1416 1419 1420 1422 1424 1427 1430 1431 1434 1440 1445 1449 1450 1454 1454 1460 1458 1459 1461 1460 1454 1457 1459 1463 1467 1471 1476 1480 1483 1486 1489 1492 1497 1500 1503 1504 1506
1352 1358 1365 1372 1377 1383 1387 1392 1396 1399 1403 1405 1406 1409 1413 1415 1417 1419 1424 1423 1422 1429 1429 1432 1435 1437 1440 1443 1447 1450 1453 1455 1454 1453 1460 1460 1451 1451 1455 1459 1463 1467 1471 1475 1479 1482 1486 1489 1492 1496 1498 1500 1501 1503
1357 1364 1371 1376 1382 1387 1392 1396 1399 1402 1404 1407 1408 1412 1414 1418 1423 1423 1429 1426 1429 1427 1430 1432 1436 1439 1443 1445 1448 1450 1456 1459 1452 1461 1460 1452 1449 1452 1455 1459 1464 1468 1472 1475 1479 1482 1485 1488 1490 1493 1495 1497 1499 1501
1364 1370 1376 1381 1386 1391 1396 1400 1401 1404 1406 1408 1412 1421 1421 1425 1425 1425 1424 1426 1428 1429 1430 1433 1435 1439 1443 1447 1449 1456 1453 1453 1460 1464 1452 1449 1450 1452 1455 1459 1463 1467 1471 1474 1477 1480 1483 1485 1487 1490 1492 1494 1496 1498
1371 1376 1381 1386 1391 1396 1401 1403 1405 1406 1409 1413 1416 1424 1427 1427 1427 1428 1428 1428 1429 1431 1433 1435 1438 1440 1445 1449 1447 1452 1458 1457 1454 1453 1447 1447 1450 1453 1456 1460 1463 1466 1469 1473 1476 1479 1482 1484 1485 1487 1490 1492 1494 1496
1378 1383 1389 1393 1398 1402 1405 1407 1407 1408 1413 1418 1423 1426 1428 1428 1430 1431 1431 1432 1432 1433 1434 1435 1438 1443 1446 1446 1448 1452 1450 1452 1452 1448 1449 1450 1452 1454 1457 1459 1462 1465 1469 1472 1475 1478 1480 1481 1483 1485 1487 1488 1490 1492
1385 1388 1396 1400 1404 1407 1408 1410 1412 1417 1421 1425 1429 1429 1430 1432 1434 1434 1434 1434 1435 1436 1437 1437 1440 1441 1442 1446 1446 1444 1450 1449 1448 1450 1450 1452 1453 1455 1457 1459 1461 1464 1467 1470 1473 1475 1477 1478 1479 1481 1482 1484 1486 1488
1391 1396 1401 1405 1408 1410 1412 1415 1418 1423 1427 1431 1432 1434 1433 1434 1435 1435 1436 1436 1438 1438 1439 1442 1442 1441 1445 1444 1450 1448 1449 1450 1451 1452 1451 1452 1453 1455 1457 1458 1461 1463 1465 1467 1470 1472 1473 1473 1474 1476 1479 1481 1482 1484
1399 1403 1407 1409 1410 1413 1415 1419 1421 1428 1434 1435 1436 1436 1436 1437 1438 1438 1439 1440 1441 1441 1442 1444 1444 1446 1448 1452 1451 1451 1451 1451 1453 1453 1452 1452 1453 1453 1455 1457 1460 1461 1462 1464 1466 1468 1469 1470 1472 1473 1474 1476 1478 1479
1406 1410 1413 1414 1415 1416 1420 1424 1426 1430 1435 1438 1438 1439 1440 1441 1441 1442 1442 1442 1443 1444 1445 1447 1450 1452 1453 1454 1454 1454 1454 1454 1454 1453 1453 1452 1453 1453 1454 1455 1457 1458 1459 1461 1464 1465 1466 1466 1467 1468 1470 1471 1474 1475
1413 1415 1416 1417 1418 1420 1425 1428 1431 1434 1437 1439 1440 1441 1443 1444 1444 1444 1444 1445 1445 1446 1450 1453 1454 1455 1455 1455 1455 1455 1455 1455 1455 1455 1453 1453 1453 1453 1453 1454 1455 1456 1457 1459 1460 1462 1462 1462 1465 1466 1467 1467 1469 1472
1417 1419 1420 1421 1422 1425 1429 1431 1434 1435 1439 1441 1442 1443 1445 1446 1446 1446 1447 1446 1448 1451 1452 1454 1454 1454 1454 1454 1453 1454 1453 1453 1453 1454 1452 1452 1452 1453 1452 1453 1453 1454 1456 1457 1458 1460 1460 1461 1461 1463 1465 1466 1467 1469
1422 1423 1424 1426 1427 1430 1436 1434 1435 1437 1440 1441 1443 1444 1446 1446 1447 1448 1449 1449 1452 1454 1454 1454 1454 1454 1454 1453 1453 1453 1453 1452 1452 1452 1452 1452 1452 1452 1452 1453 1453 1454 1455 1456 1457 1458 1457 1458 1459 1460 1461 1463 1464 1465
1427 1428 1429 1430 1432 1435 1435 1435 1435 1437 1439 1441 1443 1446 1445 1446 1449 1449 1450 1450 1453 1453 1453 1453 1453 1453 1454 1453 1454 1453 1452 1451 1451 1451 1450 1451 1451 1451 1451 1451 1451 1452 1453 1454 1455 1454 1454 1455 1456 1456 1458 1459 1460 1462
1431 1433 1433 1434 1435 1435 1436 1436 1438 1439 1442 1442 1443 1445 1446 1447 1450 1450 1448 1452 1453 1452 1453 1453 1453 1453 1453 1452 1452 1452 1450 1450 1450 1449 1449 1448 1448 1448 1448 1449 1449 1450 1451 1452 1451 1450 1451 1451 1452 1453 1454 1455 1456 1458
1433 1433 1434 1433 1434 1435 1436 1440 1440 1441 1440 1443 1443 1443 1445 1446 1449 1449 1451 1454 1453 1453 1453 1453 1453 1453 1452 1451 1450 1449 1449 1448 1447 1447 1447 1447 1447 1447 1447 1447 1447 1448 1449 1448 1448 1447 1447 1448 1448 1449 1450 1451 1453 1454
1434 1434 1433 1433 1433 1433 1434 1435 1435 1437 1440 1442 1441 1443 1444 1450 1449 1453 1454 1453 1453 1453 1453 1453 1453 1452 1451 1451 1449 1448 1447 1446 1445 1445 1446 1446 1445 1445 1445 1446 1446 1446 1445 1445 1444 1444 1444 1445 1445 1446 1447 1448 1449 1450
1433 1433 1435 1434 1434 1434 1435 1435 1436 1438 1436 1437 1438 1441 1443 1447 1452 1453 1453 1453 1453 1453 1453 1452 1451 1451 1451 1450 1449 1447 1447 1446 1445 1444 1445 1445 1445 1445 1444 1444 1443 1443 1442 1442 1441 1440 1440 1441 1442 1443 1443 1444 1445 1446
1434 1434 1435 1435 1435 1435 1435 1435 1436 1437 1438 1438 1438 1441 1447 1450 1452 1452 1453 1452 1452 1452 1452 1451 1451 1451 1451 1449 1449 1447 1447 1446 1446 1445 1445 1446 1446 1445 1445 1444 1443 1442 1441 1440 1440 1439 1439 1439 1440 1440 1441 1441 1442 1443
1434 1435 1435 1434 1435 1435 1436 1437 1437 1438 1438 1439 1440 1443 1447 1450 1451 1452 1452 1452 1452 1451 1451 1450 1450 1450 1450 1449 1448 1448 1447 1447 1446 1446 1446 1446 1446 1445 1444 1443 1442 1441 1440 1440 1439 1439 1438 1438 1438 1438 1439 1439 1440 1441
1434 1435 1435 1433 1433 1434 1435 1436 1437 1438 1439 1439 1440 1441 1445 1448 1451 1452 1452 1451 1451 1451 1451 1450 1450 1449 1449 1449 1449 1448 1448 1448 1447 1446 1446 1446 1445 1444 1443 1442 1441 1440 1439 1438 1437 1437 1436 1436 1436 1437 1437 1437 1438 1439
1433 1433 1432 1431 1433 1434 1434 1435 1436 1436 1437 1438 1441 1443 1445 1448 1451 1453 1452 1452 1451 1450 1450 1449 1449 1449 1449 1449 1449 1449 1448 1447 1447 1446 1446 1445 1444 1443 1442 1441 1439 1438 1437 1436 1435 1435 1434 1434 1434 1435 1435 1436 1437 1438
1432 1432 1432 1432 1432 1432 1433 1434 1433 1434 1435 1438 1441 1443 1444 1446 1451 1454 1453 1451 1451 1450 1449 1448 1449 1449 1449 1449 1449 1449 1448 1447 1446 1446 1445 1444 1443 1442 1441 1440 1438 1437 1436 1435 1434 1434 1434 1434 1435 1435 1436 1436 1436 1437